Tracking 31027 objects as of 19-Jul-2025
HD Live streaming from Space Station
objects crossing your sky now

CZ-3C DEB

Track CZ-3C DEB now!


NORAD ID: 40194
Int'l Code: 2012-008D
Perigee: 2,764.4 km
Apogee: 35,529.5 km
Inclination: 20.6 °
Period: 676.1 minutes
Semi major axis: 25517 km
RCS: Unknown
Launch date: February 24, 2012
Source: People's Republic of China (PRC)
Launch site: Xichang Space Center, China (XSC)

Note: This is SATELLITE DEBRIS
Your satellite tracking list
COSMOS 1408 DEB
Track 1 satellite(s)




NASA's NSSDC Master Catalog

Two Line Element Set (TLE):
1 40194U 12008D   25195.45021698 -.00000087  00000-0  00000-0 0  9992
2 40194  20.5802  53.4672 6420001 296.1198  12.6063  2.12977795 90717
Source of the keplerian elements: AFSPC